{"data":{"norad_id":61211,"intl_designator":"2024-171M","name":"STARLINK-11298 [DTC]","alt_names":[],"object_type":"PAYLOAD","status":"ACTIVE","operator":null,"country":"US","launch_date":"2024-09-20","launch_site_code":"AFWTR","launch_vehicle":null,"mission":null,"orbit_class":"UNKNOWN","rcs_meters":null,"size_class":null,"mass_kg":null,"dimensions":null,"purposes":["comms"],"wikipedia_slug":null,"has_3d_model":false,"image_url":null,"decayed_at":null,"tle_current":{"epoch":"2026-05-25T00:33:14.052384Z","epoch_age_seconds":76325,"freshness":"FRESH","line1":"1 61211U 24171M   26145.02307931  .00000088  00000+0  55753-5 0  9994","line2":"2 61211  53.1588 160.2628 0000580  83.5890 276.5194 15.69708180 96389","mean_motion":15.6970818,"eccentricity":5.8e-5,"inclination_deg":53.1588,"raan_deg":160.2628,"arg_perigee_deg":83.589,"mean_anomaly_deg":276.5194,"bstar":5.5753e-6,"rev_number":9638,"period_min":91.736796580878,"perigee_km":359.34116216856,"apogee_km":360.12275496775,"semimajor_km":6737.8689585682,"source":"CELESTRAK","updated_at":"2026-05-25T13:38:19.360962Z"}}}